Tracking 19709 objects as of 17-Jun-2019
HD Live streaming from Space Station
objects crossing your sky now

DELTA 1 R/B

Track DELTA 1 R/B now!
10-day predictions


NORAD ID: 979
Int'l Code: 1965-004B
Perigee: 708.4 km
Apogee: 2,537.7 km
Inclination: 96.4 °
Period: 118.6 minutes
Semi major axis: 7994 km
RCS: 0.4861 m2 (medium)
Launch date: January 22, 1965
Source: United States (US)
Launch site: AIR FORCE EASTERN TEST RANGE (AFETR)

Note: This is a ROCKET BODY
aabbcc
Your satellite tracking list
Your tracking list is empty




NASA's NSSDC Master Catalog

Two Line Element Set (TLE):
1   979U 65004B   19167.91738080 +.00000032 +00000-0 +48494-4 0  9998
2   979 096.4141 138.6606 1144134 065.5165 306.0836 12.14649291405024
Source of the keplerian elements: AFSPC